Location: Bovenkerk
(52.2915°N, 4.8336°E)
Time: 17:19:29
(UTC+00:00)

SL-16 R/B - Pass Details

Date: 09 April 2020
Orbit: 842 x 846 km, 71.0° (Epoch: 01 June)

Event Time Altitude Azimuth Distance (km) Brightness Sun altitude
Rises 21:27:29 0° 329° (NNW) 3,416 6.8 -23.2°
Reaches altitude 10° 21:30:07 10° 338° (NNW) 2,478 5.7 -23.4°
Maximum altitude 21:35:24 38° 46° (NE) 1,272 3.1 -23.9°
Enters shadow 21:36:59 32° 81° (E) 1,421 3.1 -24.1°
